Location: Unspecified
(28.9942°N, 0.0000°E)
Time: 07:51:01
(UTC+00:00)

Explorer 7 - Visible Passes

Search period start: 04 April 2026 00:00
Search period end: 14 April 2026 00:00
Orbit: 429 x 539 km, 50.2° (Epoch: 29 March)

Date Brightness Start Highest point End Pass type
(mag) Time Alt. Az. Time Alt. Az. Time Alt. Az.
4 Apr 9.3 03:24:55 17° ENE 03:24:55 17° ENE 03:26:17 10° E visible
4 Apr 7.2 04:59:18 13° WNW 05:01:52 29° SW 05:04:54 10° SSE visible
4 Apr 7.8 20:13:07 10° WSW 20:17:00 43° NW 20:17:34 41° NNW visible
5 Apr 7.1 04:35:00 32° SW 04:35:00 32° SW 04:37:59 10° SSE visible
5 Apr 7.7 19:45:59 10° WSW 19:49:55 47° NW 19:53:13 14° NNE visible
6 Apr 9.0 04:10:55 11° SSE 04:10:55 11° SSE 04:11:01 10° SSE visible
6 Apr 7.6 19:18:49 10° WSW 19:22:48 52° NW 19:26:44 10° NE visible
7 Apr 7.4 18:51:38 10° WSW 18:55:39 57° NW 18:59:37 10° NE visible
8 Apr 10.0 20:07:07 10° NNW 20:07:27 10° NNW 20:07:48 10° NNW visible
9 Apr 9.8 19:39:10 10° NW 19:40:13 11° NNW 19:41:15 10° NNW visible
10 Apr 9.7 19:11:29 10° NW 19:12:56 12° NNW 19:14:23 10° N visible
11 Apr 9.7 18:43:53 10° NW 18:45:38 12° NNW 18:47:23 10° N visible
